Hourly Weather Roundup
Issued by NWS Central Illinois

Home | Current Version | Previous Version | Text Only | Print | Product List | Glossary On
Versions: 1 2 3 4 5 6 7 8 9 10 11 12 13 14 15 16 17 18 19 20 21 22 23 24 25 26 27 28 29 30 31 32 33 34 35 36 37 38 39 40 41 42 43 44 45 46 47 48 49 50
000
NZUS43 KILX 280710
HWRILX

Area Weather Roundup
National Weather Service Lincoln IL
200 AM CDT WED JUN 28 2017

NOTE:  "FAIR" indicates few or no clouds below 12,000 feet, with
       no sigificant weather and/or obstructions to visibility.


CITY           SKY/WX    TMP DP  RH WIND       PRES   REMARKS
Bloomington    CLEAR     57  49  74 S9        30.06S
Champaign      CLEAR     58  48  69 SE7       30.07F
Danville       CLEAR     55  49  80 SE5       30.06S
Decatur        CLEAR     60  50  69 SE8       30.06S
Effingham      CLEAR     59  54  84 E5        30.09S
Flora          CLEAR     58  53  81 CALM      30.08S
Galesburg      CLEAR     61  53  73 SE8       29.96F
Jacksonville   CLEAR     65  53  64 SE10      30.00F
Lacon          CLEAR     58  49  71 S6        30.00F
Lawrenceville  CLEAR     59  53  80 CALM      30.09F
Litchfield     CLEAR     60  53  77 SE5       30.05S
$$


CITY           SKY/WX    TMP DP  RH WIND       PRES   REMARKS
Lincoln        CLEAR     60  53  76 S5        30.04F
Macomb         PTCLDY    60  53  79 SE7       29.97F
Mattoon        CLEAR     57  51  80 S7        30.07S
Mt Carmel AP   CLEAR     55  51  85 E3        30.09F
Olney-Noble AP CLEAR     59  54  83 SE5       30.08F
Paris AP       CLEAR     54  50  87 SE6       30.10S
Peoria         CLEAR     63  50  62 S8        30.01F
Pontiac        CLEAR     59  52  78 SE6       30.05F
Rantoul        CLEAR     57  51  81 CALM      30.08S
Robinson       CLEAR     54  50  87 CALM      30.10F
Springfield    CLEAR     66  53  63 S9        30.04S
Taylorville    CLEAR     59  53  80 S7        30.05S
$$

...REGIONAL REPORTS...


CITY           SKY/WX    TMP DP  RH WIND       PRES   REMARKS
Chicago O`Hare PTCLDY    58  47  66 S8        30.03F
Kankakee       CLEAR     61  48  63 S8        30.07S
Moline         CLEAR     62  51  67 SE9       29.92F
Mount Sterling CLEAR     61  54  77 S7        29.97F
Mount Vernon   CLEAR     58  53  84 CALM      30.06F
Pittsfield     CLEAR     64  56  76 SE6       29.99F
Quincy         MOCLDY    68  55  63 S12       29.94F
Rockford       CLEAR     58  47  66 S8        30.00F
$$


CITY           SKY/WX    TMP DP  RH WIND       PRES   REMARKS
Burlington     PTCLDY    68  54  60 S21G29    29.92F
Cedar Rapids   CLOUDY    66  53  63 S15       29.87F
Des Moines     CLOUDY    72  62  71 S18G25    29.79F
Kirksville     CLOUDY    68  61  78 S10       29.92F
Ottumwa        CLOUDY    69  54  58 S9        29.88F
St Louis       CLEAR     71  55  56 S8        30.04S
$$


CITY           SKY/WX    TMP DP  RH WIND       PRES   REMARKS
Terre Haute    CLEAR     58  49  72 SE3       30.10S
Evansville     CLEAR     57  54  89 CALM      30.10S
Indianapolis   CLEAR     58  48  69 S3        30.10F
Lafayette      CLEAR     54  50  86 CALM      30.09S
Madison        CLEAR     61  49  64 S8        29.95F
Milwaukee      PTCLDY    60  49  66 S6        30.02F
$$






USA.gov is the U.S. government's official web portal to all federal, state and local government web resources and services.